Lid_Strength_Index
2 1 1 1 1 2 2 2 2 1 1 1 1 2 1 1 1 1 2 2 1 1 2 1 2 2 2 1 1 2 2 3 4 3 2 2 2 1 1 1 0 0 -0
2 2 2 2 2 2 1 1 0 2 2 1 1 2 1 0 1 1 1 1 2 1 2 2 1 1 2 2 1 2 2 2 3 4 3 2 2 1 1 2 1 0 1
1 2 2 2 2 2 1 1 1 1 2 2 2 2 1 1 1 1 1 1 1 1 1 2 2 2 2 2 2 2 2 1 2 3 3 2 2 2 3 2 2 2 0
1 1 2 2 1 2 2 1 1 1 2 2 2 2 2 1 1 0 1 1 1 1 1 1 2 2 2 2 2 2 2 2 3 3 3 3 3 2 2 3 2 1 1
1 1 2 1 1 1 1 2 1 1 1 2 2 2 2 1 1 1 1 1 1 1 1 1 1 1 2 2 2 2 2 2 3 3 3 3 3 3 3 2 3 2 2
2 2 1 1 1 1 1 2 1 1 1 1 1 1 2 1 3 3 1 1 1 2 2 2 1 1 1 3 3 4 2 3 3 3 3 4 4 4 4 3 4 5 5
4 4 3 1 1 1 1 1 1 1 1 1 1 1 1 1 4 5 4 1 1 2 2 2 1 1 2 1 2 4 4 4 4 2 3 3 4 4 4 5 5 5 5
5 5 4 4 3 2 2 2 1 1 1 1 1 1 1 1 5 7 5 3 2 2 1 1 1 1 1 1 2 2 1 1 2 3 3 2 3 2 3 3 4 5 4
8 7 6 5 4 4 4 4 4 3 2 2 2 2 1 1 5 7 6 3 3 3 3 2 1 1 3 5 2 2 2 2 3 5 5 5 5 5 4 4 4 5 3
8 8 7 6 6 5 6 5 4 4 3 2 2 1 2 1 5 7 6 2 3 2 2 2 5 3 5 7 3 2 2 2 2 1 1 2 5 4 5 4 3 3 3
6 5 6 6 6 6 6 6 7 5 6 4 4 3 2 3 2 7 7 3 2 2 2 1 1 8 9 9 9 3 2 4 3 3 3 2 1 1 1 2 3 2 2
7 7 6 6 5 5 5 6 6 7 7 7 6 6 6 4 5 6 8 7 6 3 2 2 2 7 9 10 8 7 8 8 6 5 4 3 3 2 2 1 1 1 1
8 8 8 7 6 6 6 5 6 6 6 6 5 6 6 6 6 7 7 7 6 4 3 6 8 8 8 7 8 7 7 4 4 4 3 2 2 1 1 2 1 0 0
10 9 9 9 8 7 7 6 6 7 7 6 6 6 6 5 5 6 7 7 5 5 4 4 5 7 7 6 4 3 3 4 4 3 2 1 1 2 2 2 2 2 2
10 10 10 9 10 9 9 8 7 8 8 8 7 7 7 7 7 9 9 8 8 8 8 5 5 6 5 5 5 4 3 2 2 1 2 2 2 1 2 2 3 3 3
10 10 10 10 10 10 10 10 8 8 9 9 10 9 7 8 10 10 11 10 11 9 4 3 3 3 4 3 4 3 3 2 2 2 1 1 2 2 2 1 2 3 3
11 11 11 10 10 10 10 10 11 10 9 9 10 10 10 10 10 11 11 11 11 9 6 6 5 4 3 3 2 2 3 4 4 3 4 3 2 2 2 2 2 2 3
11 8 11 11 11 11 11 11 10 10 10 10 9 9 9 10 11 11 11 10 5 6 6 5 4 4 2 2 4 4 4 4 4 4 5 4 4 3 2 2 2 3 3
10 10 10 11 11 10 11 10 10 10 10 10 10 10 9 10 10 10 9 8 6 5 4 3 3 4 4 5 6 6 6 5 5 4 4 4 4 4 4 2 2 6 4
10 7 9 11 11 11 11 11 11 11 11 11 11 11 10 10 11 10 9 9 8 7 5 4 5 5 6 6 6 6 6 6 6 6 5 5 4 4 3 3 3 2 2
11 11 8 11 11 11 11 12 11 11 12 11 11 10 9 11 11 10 10 9 9 9 7 6 4 5 6 6 6 7 8 7 7 7 6 6 6 5 4 4 4 4 2
10 11 11 11 11 11 11 11 12 12 11 11 11 10 10 11 11 10 10 9 8 8 7 7 5 4 5 6 6 7 7 8 8 7 7 7 7 7 6 6 5 4 3
10 11 11 11 11 10 12 12 12 12 12 12 12 11 11 12 11 11 11 11 10 8 7 7 7 6 5 6 7 7 8 8 7 7 8 8 8 8 7 7 6 5 4
11 11 11 12 12 12 13 13 13 12 12 12 12 12 12 12 12 12 11 11 10 9 8 7 7 6 6 7 7 7 7 7 7 8 8 8 9 9 9 8 7 6 5
11 11 12 12 12 13 13 13 13 13 11 11 11 11 11 11 11 11 11 11 11 10 10 9 8 7 8 8 8 8 9 11 10 10 10 11 11 10 10 9 8 7 6
10 10 11 11 12 12 13 13 13 11 10 10 10 10 10 11 11 11 11 11 11 10 10 9 9 9 9 9 9 10 13 13 12 13 12 12 12 11 9 8 7 6 5